| time (UTC) | temp F | wind direction | speed MPH | gust MPH | rain 1hr in | rain 24hr in | rain mn in | humidity % | barometer mb |
| 20260506112532 | 75 | 173 | 5.0 | 11.0 | 0.00 | 0.00 | 0.00 | 45 | 1004.3 |
| 20260506105532 | 73 | 189 | 3.0 | 10.0 | 0.00 | 0.00 | 0.00 | 43 | 1004.5 |
| 20260506102532 | 72 | 143 | 2.0 | 7.0 | 0.00 | 0.00 | 0.00 | 46 | 1004.7 |
| 20260506092532 | 71 | 127 | 2.0 | 6.0 | 0.00 | 0.00 | 0.00 | 51 | 1005.1 |
| 20260506085532 | 71 | 137 | 2.0 | 5.0 | 0.00 | 0.00 | 0.00 | 54 | 1005.3 |
| 20260506082532 | 69 | 148 | 2.0 | 7.0 | 0.00 | 0.00 | 0.00 | 55 | 1005.7 |
| 20260506072532 | 66 | 136 | 1.0 | 4.0 | 0.00 | 0.00 | 0.00 | 62 | 1006.1 |
| 20260506042533 | 51 | 245 | 0.0 | 3.0 | 0.00 | 0.00 | 0.00 | 86 | 1006.5 |
| 20260506035533 | 50 | 279 | 0.0 | 0.0 | 0.00 | 0.00 | 0.00 | 85 | 1006.1 |
| 20260506032533 | 50 | 279 | 0.0 | 2.0 | 0.00 | 0.00 | 0.00 | 84 | 1005.6 |
| 20260506025535 | 52 | 279 | 0.0 | 0.0 | 0.00 | 0.00 | 0.00 | 83 | 1005.8 |
| 20260506025533 | 52 | 279 | 0.0 | 0.0 | 0.00 | 0.00 | 0.00 | 83 | 1005.8 |
| 20260506022533 | 53 | 279 | 0.0 | 0.0 | 0.00 | 0.00 | 0.00 | 82 | 1006.0 |
| 20260506015533 | 54 | 279 | 0.0 | 0.0 | 0.00 | 0.00 | 0.00 | 82 | 1006.0 |
| 20260506012533 | 55 | 276 | 0.0 | 1.0 | 0.00 | 0.00 | 0.00 | 82 | 1005.9 |
| 20260506005533 | 55 | 281 | 2.0 | 6.0 | 0.00 | 0.00 | 0.00 | 81 | 1006.0 |
| 20260506002533 | 56 | 279 | 1.0 | 5.0 | 0.00 | 0.00 | 0.00 | 81 | 1005.8 |
| 20260505235534 | 58 | 327 | 3.0 | 7.0 | 0.00 | 0.00 | 0.00 | 78 | 1005.4 |
| 20260505232534 | 60 | 274 | 3.0 | 8.0 | 0.00 | 0.00 | 0.00 | 74 | 1005.0 |
| 20260505225534 | 60 | 319 | 3.0 | 7.0 | 0.00 | 0.00 | 0.00 | 70 | 1004.6 |
| 20260505222534 | 61 | 294 | 9.0 | 17.0 | 0.00 | 0.00 | 0.00 | 67 | 1004.7 |
| 20260505215534 | 63 | 327 | 6.0 | 14.0 | 0.00 | 0.00 | 0.00 | 63 | 1004.0 |
| 20260505212534 | 64 | 277 | 9.0 | 16.0 | 0.00 | 0.00 | 0.00 | 62 | 1003.9 |
| 20260505205534 | 65 | 327 | 9.0 | 17.0 | 0.00 | 0.00 | 0.00 | 59 | 1003.7 |
| 20260505202534 | 66 | 326 | 7.0 | 15.0 | 0.00 | 0.00 | 0.00 | 55 | 1003.3 |
| 20260505195534 | 65 | 122 | 0.0 | 0.0 | 0.00 | 0.00 | 0.00 | 57 | 1002.4 |
| 20260505192534 | 67 | 111 | 0.0 | 1.0 | 0.00 | 0.00 | 0.00 | 57 | 1001.9 |
| 20260505185535 | 68 | 133 | 0.0 | 0.0 | 0.00 | 0.00 | 0.00 | 54 | 1001.8 |
| 20260505182535 | 70 | 133 | 0.0 | 0.0 | 0.00 | 0.00 | 0.00 | 52 | 1001.5 |
| 20260505175535 | 72 | 133 | 0.0 | 1.0 | 0.00 | 0.00 | 0.00 | 49 | 1001.6 |
| 20260505172535 | 74 | 133 | 0.0 | 0.0 | 0.00 | 0.00 | 0.00 | 43 | 1001.7 |
| 20260505165535 | 75 | 162 | 0.0 | 1.0 | 0.00 | 0.00 | 0.00 | 38 | 1001.8 |
| 20260505162536 | 77 | 194 | 1.0 | 3.0 | 0.00 | 0.00 | 0.00 | 34 | 1002.0 |
| 20260505152535 | 80 | 125 | 3.0 | 7.0 | 0.00 | 0.00 | 0.00 | 33 | 1002.6 |
| 20260505122536 | 74 | 77 | 3.0 | 7.0 | 0.00 | 0.00 | 0.00 | 44 | 1004.7 |
| 20260505115536 | 76 | 110 | 3.0 | 5.0 | 0.00 | 0.00 | 0.00 | 40 | 1005.0 |